Regional Weather Roundup
Issued by NWS

Home | Current Version | Previous Version | Graphics & Text | Print | Product List | Glossary On
Versions: 1 2 3 4 5 6 7 8 9 10 11 12 13 14 15 16 17 18 19 20 21 22 23 24 25 26 27 28 29 30 31 32 33 34 35 36 37 38 39 40 41 42 43 44 45 46 47 48 49 50
000
ASUS45 KCYS 241610
RWRWY

WYOMING REGIONAL WEATHER ROUNDUP
NATIONAL WEATHER SERVICE CHEYENNE WY
1000 AM MDT SUN JUL 24 2016

NOTE:  "FAIR" INDICATES FEW OR NO CLOUDS BELOW 12,000 FEET
WITH NO SIGNIFICANT WEATHER AND/OR OBSTRUCTIONS TO VISIBILITY.

WYZ001-241700-
YELLOWSTONE NATIONAL PARK

CITY           SKY/WX    TMP DP  RH WIND       PRES   REMARKS
LK YELLOWSTONE   N/A     57  36  45 SE5       30.39R
W YELLOWSTONE  NOT AVBL

$$
WYZ002>013-054>058-071-098>099-241700-
NORTHERN WYOMING

CITY           SKY/WX    TMP DP  RH WIND       PRES   REMARKS
JACKSON        SUNNY     57  28  33 CALM      30.31S
CODY           FAIR      70  43  37 NE7       30.21S
GREYBULL       FAIR      72  41  32 S6        30.14F
WORLAND        FAIR      73  40  30 VRB5      30.16S
SHERIDAN       FAIR      79  41  25 SE17      30.13S
BUFFALO        FAIR      77  38  24 SE23G29   30.21S
GILLETTE       FAIR      76  42  29 SE12      30.18R
HULETT         PTSUNNY   68  55  64 CALM      30.18S
NEWCASTLE      FAIR      73  36  25 S9        30.21S

$$
WYZ014>020-022>026-101>103-241700-
CENTRAL WYOMING

CITY           SKY/WX    TMP DP  RH WIND       PRES   REMARKS
BIG PINEY      FAIR      65  27  23 VRB5      30.33S
PINEDALE       FAIR      64  32  29 SE5       30.34S
DUBOIS           N/A     63  28  27 E3        30.32F HAZE
LANDER           N/A     72  39  30 N7        30.25R
RIVERTON       FAIR      72  38  29 VRB7      30.24S
CASPER         FAIR      68  39  34 VRB3      30.24R
DOUGLAS          N/A    N/A N/A N/A MISG      30.22S

$$
WYZ021-027>030-104>119-241700-
SOUTHERN WYOMING

CITY           SKY/WX    TMP DP  RH WIND       PRES   REMARKS
EVANSTON       FAIR      70  29  21 CALM      30.32S
KEMMERER         N/A     72  25  17 SW3       30.33F
FORT BRIDGER   FAIR      70  26  18 E3        30.34F
ROCK SPRINGS   FAIR      70  34  26 NE6       30.30S
DIXON          FAIR      74  38  27 E5        30.31S
RAWLINS        FAIR      74  31  20 W8        30.30S
SARATOGA       FAIR      73  36  25 NE7       30.31S
LARAMIE        FAIR      75  35  23 W8        30.31R
CHEYENNE       FAIR      75  52  44 VRB3      30.24R
TORRINGTON     FAIR      80  51  36 E14G24    30.15R
PINE BLUFFS    FAIR      73  55  53 SE17G23   30.19S

$$



USA.gov is the U.S. government's official web portal to all federal, state and local government web resources and services.